Retour au catalogue

STARLINK-4016

ActifCommunicationsVLEO
NORAD 52603·PAYLOAD·🇺🇸 United States

Lancé May 14, 2022 depuis Cape Canaveral Space Force Station

Loading…

Prochains Passages (prochaines 24 heures)

TLE

FraisSource: CelesTrak SupGP

Époque: Sep 14, 2026, 21:39 UTC

1 52603C 22052F   26257.90256944 -.00022104  00000+0 -71065-3 0  2577
2 52603  53.1565 134.9000 0001124  94.5703  25.3469 15.31720209    16

Suivez STARLINK-4016 en temps réel avec AllMySat

Download on the App Store